Flag for Czech Republic Weather past 2 weeks in Plzen, Czech Republic

Now
82 °F

Scattered clouds.


Feels Like: 82 °F
Forecast: 60 / 91 °F
Wind: 7 mph from West

Location: Kocelovice

Current Time: Jul 6, 2015 at 3:46:34 PM

Latest Report: Jul 6, 2015 at 3:00 PM


Visibility: 19 mi

Pressure: 30.04 "Hg

Humidity: 45%

Dew point: 59 °F

Location of PlzenLocation

Historic Weather in Plzen — Graph

°F

Plzen temperature yesterday

Maximum temperature yesterday: 93 °F (at 2:00 PM)
Minimum temperature yesterday: 65 °F (at 4:00 AM)
Average temperature yesterday: 78 °F

Past Weeks' High & Low Weather Summary

 TemperatureHumidityPressure
High93 °F (Jul 5, 2:00 PM)100% (Jun 30, 2:00 AM)30.29 "Hg (Jun 30, 2:00 AM)
Low42 °F (Jun 25, 5:00 AM)28% (Jul 5, 3:00 PM)29.70 "Hg (Jun 23, 4:00 AM)
Average65 °F66%30.10 "Hg
* Reported Jun 21 2:00 PM — Jul 6 2:00 PM, Plzen, Weather by CustomWeather, © 2015

Note: Actual official high and low records may vary slightly from our data, if they occured in-between our weather recording intervals... More about our weather records

Advertising

Plzen weather history for previous 24 hours

 ConditionsComfort  
Time TempWeatherWind HumidityBarometerVisibility
2:00 PM
Mon, Jul 6
79 °FPartly sunny.7 mph50%30.06 "Hg19 mi
1:00 PM78 °FPartly sunny.7 mph56%30.07 "Hg17 mi
12:00 PM76 °FScattered clouds.7 mph64%30.08 "Hg16 mi
11:00 AM74 °FPartly sunny.9 mph69%30.08 "Hg16 mi
10:00 AM75 °FPartly sunny.9 mph68%30.06 "Hg16 mi
9:00 AM75 °FPartly sunny.7 mph65%30.03 "Hg16 mi
8:00 AM75 °FScattered clouds.N/A66%30.01 "Hg14 mi
7:00 AM72 °FMild.N/A71%30.01 "Hg12 mi
6:00 AM70 °FMild.N/A72%29.99 "Hg12 mi
4:00 AM72 °FMild.8 mph64%29.95 "Hg12 mi
3:00 AM71 °FMild.8 mph67%29.96 "Hg12 mi
2:00 AM67 °FMild.2 mph84%29.95 "Hg11 mi
1:00 AM68 °FMild.1 mph85%29.94 "Hg11 mi
12:00 AM70 °FMild.2 mph82%29.93 "Hg12 mi
11:00 PM
Sun, Jul 5
71 °FMild.2 mph78%29.94 "Hg12 mi
10:00 PM76 °FPassing clouds.1 mph64%29.93 "Hg14 mi
9:00 PM78 °FPassing clouds.1 mph61%29.92 "Hg14 mi
8:00 PM80 °FPassing clouds.3 mph61%29.93 "Hg16 mi
7:00 PM82 °FScattered clouds.7 mph52%29.95 "Hg16 mi
6:00 PM86 °FThunderstorms. Partly sunny.N/A46%29.95 "Hg14 mi
5:00 PM71 °FThundershowers. Overcast.8 mph73%30.01 "Hg5 mi
4:00 PM90 °FThunderstorms. Overcast.N/A33%29.93 "Hg16 mi
3:00 PM93 °FPartly sunny.5 mph28%29.93 "Hg16 mi
Weather by CustomWeather, © 2015

See weather overviewHow to use our weather pages